"startDT [UTC]","vpos","CH4 [ppm]","stdev(CH4) [ppm]","CO2 [ppm]","stdev(CO2) [ppm]","H2O_reported [%]","stdev(H2O_reported)","CavityPressure [torr]","CavityTemp [C]","OutletValve","CH4_dry [ppm]","CO2_dry [ppm]","DasTemp [C]","EtalonTemp [C]","WarmBoxTemp [C]","MPVPosition","T_ECpre [C]","T_EC1 [C]","T_EC2 [C]","p_inlet [hPa]","p_in [hPa]","p_out [hPa]","T_inlet [C]","RH_inlet [%]","dwpt_inlet [C]","T_vent [C]","RH_vent [%]","dwpt_vent [C]","flow_vent [l min-1]","flow_inlet [l min-1]","dwpt_sample [C]","T_room [C]"
2015-01-20 00:00:00,0.0,1.96368,0.00044,408.436,0.027,0.0665,0.0020,140.000,45.000,28633.11236,1.96496,408.763,33.688,45.067,45.000,0.00,0.09,-272.68,-272.74,-11,135,-3,20.8,2.2,-29.3,21.2,3.5,-24.1,5.73,2.65,-19.4,26.6
2015-01-20 00:01:00,0.0,1.96393,0.00033,408.457,0.029,0.0661,0.0017,139.997,45.000,28637.34370,1.96520,408.782,33.684,45.067,44.999,0.00,0.09,-272.69,-272.74,-10,136,-3,20.9,2.2,-29.2,21.1,3.4,-24.2,5.73,2.64,-19.4,26.6
2015-01-20 00:02:00,0.0,1.96394,0.00039,408.427,0.038,0.0662,0.0023,139.999,45.000,28637.51132,1.96522,408.751,33.681,45.067,45.000,0.00,0.09,-272.69,-272.74,-10,136,-3,20.8,2.2,-29.3,21.2,3.4,-24.2,5.73,2.54,-19.4,26.6
2015-01-20 00:03:00,0.0,1.96394,0.00024,408.453,0.036,0.0662,0.0017,139.999,45.000,28633.64446,1.96523,408.779,33.676,45.067,45.000,0.00,0.09,-272.68,-272.74,-11,136,-2,20.8,2.2,-29.2,21.1,3.4,-24.2,5.73,2.48,-19.4,26.6
2015-01-20 00:04:00,0.0,1.96405,0.00031,408.475,0.024,0.0665,0.0008,139.999,45.000,28635.53766,1.96530,408.801,33.685,45.067,45.000,0.00,0.09,-272.67,-272.74,-11,135,-3,20.8,2.2,-29.2,21.1,3.5,-24.2,5.73,2.49,-19.4,26.6
2015-01-20 00:05:00,0.0,1.96395,0.00033,408.466,0.024,0.0662,0.0019,140.000,45.000,28640.16900,1.96525,408.793,33.688,45.067,45.000,0.00,0.09,-272.68,-272.75,-10,137,-3,20.8,2.2,-29.2,21.1,3.5,-24.2,5.73,2.56,-19.4,26.6
2015-01-20 00:06:00,0.0,1.96384,0.00045,408.445,0.026,0.0667,0.0012,140.000,45.000,28645.32828,1.96515,408.773,33.688,45.067,45.000,0.00,0.09,-272.69,-272.75,-10,137,-3,20.8,2.2,-29.2,21.1,3.5,-24.2,5.73,2.62,-19.4,26.6
2015-01-20 00:07:00,0.0,1.96397,0.00039,408.459,0.028,0.0662,0.0016,139.997,45.000,28655.01156,1.96522,408.783,33.690,45.067,45.000,0.00,0.09,-272.68,-272.74,-10,139,-3,20.8,2.2,-29.2,21.2,3.4,-24.2,5.73,2.60,-19.4,26.7
2015-01-20 00:08:00,0.0,1.96375,0.00032,408.445,0.029,0.0667,0.0019,140.001,45.000,28667.69917,1.96508,408.773,33.691,45.068,45.000,0.00,0.09,-272.70,-272.74,-11,139,-3,20.9,2.2,-29.2,21.2,3.4,-24.2,5.73,2.57,-19.4,26.7
2015-01-20 00:09:00,0.0,1.96420,0.00033,408.471,0.041,0.0662,0.0021,139.999,45.000,28660.06768,1.96546,408.797,33.697,45.068,45.000,0.00,0.09,-272.69,-272.75,-11,139,-3,20.9,2.2,-29.2,21.2,3.4,-24.2,5.73,2.48,-19.4,26.7
2015-01-20 00:10:00,0.0,1.96431,0.00045,408.456,0.033,0.0666,0.0024,140.001,45.001,28649.60067,1.96559,408.783,33.725,45.068,45.001,0.00,0.09,-272.69,-272.75,-10,137,-3,20.9,2.2,-29.3,21.2,3.4,-24.2,5.73,2.48,-19.4,26.7
2015-01-20 00:11:00,0.0,1.96454,0.00046,408.479,0.026,0.0655,0.0019,140.001,45.000,28660.04795,1.96579,408.800,33.750,45.068,45.001,0.00,0.09,-272.68,-272.74,-10,138,-3,20.9,2.2,-29.4,21.2,3.4,-24.2,5.73,2.46,-19.4,26.7
2015-01-20 00:12:00,0.0,1.96467,0.00038,408.504,0.035,0.0650,0.0015,139.997,45.001,28662.36434,1.96592,408.824,33.755,45.068,45.000,0.00,0.09,-272.69,-272.75,-10,139,-3,20.9,2.1,-29.5,21.2,3.4,-24.1,5.73,2.52,-19.4,26.7
2015-01-20 00:13:00,0.0,1.96480,0.00045,408.520,0.029,0.0643,0.0014,139.997,45.000,28650.60650,1.96604,408.835,33.762,45.068,45.001,0.00,0.09,-272.68,-272.75,-11,137,-2,20.9,2.1,-29.6,21.2,3.5,-24.1,5.73,2.60,-19.4,26.7
2015-01-20 00:14:00,0.0,1.96471,0.00035,408.513,0.051,0.0635,0.0020,140.000,45.000,28651.98492,1.96592,408.827,33.755,45.068,45.000,0.00,0.09,-272.69,-272.74,-11,137,-3,20.9,2.1,-29.7,21.2,3.4,-24.2,5.73,2.66,-19.4,26.7
2015-01-20 00:15:00,0.0,1.96469,0.00029,408.507,0.034,0.0636,0.0014,139.999,45.000,28651.04341,1.96594,408.818,33.750,45.068,45.000,0.00,0.09,-272.70,-272.74,-10,137,-3,20.8,2.1,-29.8,21.1,3.4,-24.2,5.73,2.61,-19.4,26.6
2015-01-20 00:16:00,0.0,1.96511,0.00045,408.590,0.029,0.0631,0.0017,139.998,45.000,28646.53960,1.96631,408.899,33.749,45.067,45.000,0.00,0.09,-272.69,-272.74,-10,136,-3,20.8,2.1,-29.9,21.2,3.4,-24.2,5.73,2.51,-19.4,26.6
2015-01-20 00:17:00,0.0,1.96549,0.00040,408.597,0.039,0.0623,0.0013,139.997,45.000,28643.27574,1.96669,408.904,33.743,45.067,45.000,0.00,0.09,-272.67,-272.74,-10,136,-3,20.8,2.1,-29.9,21.2,3.4,-24.2,5.73,2.46,-19.4,26.6
2015-01-20 00:18:00,0.0,1.96535,0.00042,408.583,0.033,0.0624,0.0022,140.004,45.000,28653.43340,1.96656,408.890,33.730,45.067,45.000,0.00,0.09,-272.68,-272.75,-11,137,-2,20.8,2.1,-30.0,21.1,3.5,-24.2,5.73,2.52,-19.4,26.6
2015-01-20 00:19:00,0.0,1.96572,0.00035,408.616,0.033,0.0612,0.0016,139.998,45.000,28650.67080,1.96690,408.917,33.740,45.067,45.000,0.00,0.09,-272.69,-272.75,-11,137,-3,20.8,2.1,-30.0,21.2,3.5,-24.2,5.73,2.58,-19.4,26.7
2015-01-20 00:20:00,0.0,1.96554,0.00037,408.623,0.033,0.0624,0.0013,139.999,45.000,28653.18969,1.96676,408.930,33.743,45.067,45.000,0.00,0.09,-272.69,-272.74,-10,138,-2,20.8,2.1,-30.0,21.1,3.5,-24.2,5.73,2.63,-19.4,26.6
2015-01-20 00:21:00,0.0,1.96554,0.00039,408.639,0.031,0.0622,0.0014,140.001,45.000,28669.34306,1.96673,408.944,33.748,45.067,45.000,0.00,0.09,-272.68,-272.74,-10,140,-3,20.8,2.1,-29.9,21.1,3.5,-24.2,5.73,2.60,-19.4,26.7
2015-01-20 00:22:00,0.0,1.96537,0.00036,408.655,0.024,0.0618,0.0020,140.001,45.000,28667.85323,1.96656,408.959,33.750,45.068,45.000,0.00,0.09,-272.69,-272.74,-10,139,-2,20.8,2.0,-30.0,21.1,3.4,-24.2,5.73,2.55,-19.4,26.7
2015-01-20 00:23:00,0.0,1.96527,0.00035,408.635,0.033,0.0625,0.0018,140.000,45.001,28661.65880,1.96648,408.942,33.760,45.068,45.001,0.00,0.09,-272.69,-272.74,-11,138,-2,20.9,2.1,-29.9,21.2,3.4,-24.2,5.73,2.50,-19.4,26.7
2015-01-20 00:24:00,0.0,1.96572,0.00046,408.652,0.041,0.0620,0.0015,139.999,45.000,28657.80953,1.96691,408.957,33.791,45.068,45.001,0.00,0.09,-272.69,-272.74,-11,137,-2,20.9,2.0,-30.0,21.2,3.4,-24.2,5.73,2.45,-19.4,26.7
2015-01-20 00:25:00,0.0,1.96598,0.00041,408.700,0.028,0.0622,0.0019,139.998,45.000,28660.48923,1.96718,409.005,33.815,45.068,45.001,0.00,0.09,-272.68,-272.75,-10,138,-3,20.9,2.0,-30.1,21.2,3.4,-24.2,5.73,2.50,-19.4,26.7
2015-01-20 00:26:00,0.0,1.96620,0.00048,408.718,0.033,0.0619,0.0017,140.000,45.000,28659.79461,1.96738,409.021,33.858,45.068,45.000,0.00,0.09,-272.69,-272.75,-10,138,-3,20.9,2.0,-30.1,21.2,3.5,-24.2,5.73,2.55,-19.4,26.7
2015-01-20 00:27:00,0.0,1.96616,0.00037,408.733,0.026,0.0620,0.0022,140.001,45.000,28652.52179,1.96737,409.040,33.875,45.067,45.000,0.00,0.09,-272.68,-272.74,-10,137,-3,20.9,2.0,-30.1,21.2,3.5,-24.1,5.73,2.62,-19.4,26.7
2015-01-20 00:28:00,0.0,1.96631,0.00045,408.744,0.038,0.0614,0.0020,140.001,45.000,28662.80695,1.96749,409.046,33.874,45.067,44.999,0.00,0.09,-272.69,-272.74,-11,138,-2,20.9,2.0,-30.1,21.2,3.4,-24.2,5.73,2.62,-19.4,26.7
2015-01-20 00:29:00,0.0,1.96614,0.00028,408.715,0.027,0.0619,0.0010,139.999,45.000,28658.20393,1.96736,409.019,33.877,45.067,45.000,0.00,0.09,-272.69,-272.74,-11,137,-2,20.9,2.0,-30.0,21.2,3.4,-24.1,5.73,2.60,-19.4,26.7
2015-01-20 00:30:00,0.0,1.96620,0.00034,408.711,0.033,0.0620,0.0012,140.000,45.000,28651.43613,1.96739,409.016,33.878,45.067,44.999,0.00,0.09,-272.68,-272.74,-10,136,-2,20.9,2.0,-30.1,21.2,3.5,-24.1,5.73,2.51,-19.4,26.7
2015-01-20 00:31:00,0.0,1.96645,0.00045,408.726,0.028,0.0622,0.0015,140.001,45.000,28651.78179,1.96764,409.032,33.874,45.067,45.000,0.00,0.09,-272.67,-272.74,-10,137,-2,20.8,2.0,-30.1,21.2,3.4,-24.2,5.73,2.46,-19.4,26.7
2015-01-20 00:32:00,0.0,1.96636,0.00036,408.733,0.036,0.0613,0.0018,139.999,45.000,28653.16555,1.96756,409.034,33.834,45.067,45.000,0.00,0.09,-272.68,-272.75,-10,137,-2,20.8,2.0,-30.1,21.1,3.4,-24.2,5.73,2.51,-19.4,26.6
2015-01-20 00:33:00,0.0,1.96627,0.00042,408.722,0.026,0.0617,0.0017,140.001,45.000,28655.81024,1.96748,409.026,33.813,45.067,45.000,0.00,0.09,-272.69,-272.75,-11,137,-2,20.8,2.0,-30.1,21.2,3.5,-24.2,5.73,2.58,-19.4,26.7
2015-01-20 00:34:00,0.0,1.96635,0.00045,408.729,0.038,0.0609,0.0014,140.001,45.000,28651.90436,1.96747,409.025,33.803,45.067,45.000,0.00,0.09,-272.68,-272.74,-11,137,-3,20.8,2.0,-30.1,21.2,3.4,-24.2,5.73,2.64,-19.4,26.6
2015-01-20 00:35:00,0.0,1.96627,0.00028,408.762,0.027,0.0607,0.0017,140.000,45.000,28648.51473,1.96748,409.061,33.755,45.067,45.000,0.00,0.09,-272.69,-272.74,-10,137,-3,20.8,2.0,-30.1,21.1,3.4,-24.2,5.73,2.56,-19.4,26.6
2015-01-20 00:36:00,0.0,1.96642,0.00043,408.743,0.032,0.0614,0.0015,140.001,45.000,28646.66045,1.96760,409.044,33.750,45.068,45.000,0.00,0.09,-272.69,-272.75,-10,136,-2,20.8,2.0,-30.1,21.1,3.5,-24.2,5.73,2.55,-19.4,26.6
2015-01-20 00:37:00,0.0,1.96636,0.00033,408.765,0.028,0.0625,0.0014,139.999,45.000,28651.61708,1.96754,409.071,33.750,45.067,45.000,0.00,0.09,-272.69,-272.74,-11,137,-2,20.8,2.0,-30.1,21.1,3.4,-24.2,5.73,2.45,-19.4,26.7
2015-01-20 00:38:00,0.0,1.96644,0.00037,408.739,0.032,0.0609,0.0019,140.000,45.000,28653.41833,1.96766,409.039,33.750,45.068,45.000,0.00,0.09,-272.68,-272.75,-11,137,-3,20.8,2.0,-30.1,21.1,3.5,-24.2,5.73,2.48,-19.4,26.6
2015-01-20 00:39:00,0.0,1.96596,0.00034,408.710,0.039,0.0610,0.0013,140.000,45.000,28652.45444,1.96713,409.010,33.751,45.067,45.000,0.00,0.09,-272.68,-272.75,-10,137,-3,20.8,2.0,-30.1,21.1,3.5,-24.2,5.73,2.55,-19.4,26.6
2015-01-20 00:40:00,0.0,1.96593,0.00037,408.718,0.030,0.0616,0.0015,139.998,45.000,28654.09094,1.96712,409.022,33.763,45.067,45.000,0.00,0.09,-272.69,-272.75,-10,137,-2,20.8,2.0,-30.1,21.1,3.5,-24.2,5.73,2.60,-19.4,26.7
2015-01-20 00:41:00,0.0,1.96567,0.00038,408.659,0.039,0.0617,0.0014,139.999,45.000,28648.59704,1.96686,408.962,33.756,45.068,45.000,0.00,0.09,-272.69,-272.74,-10,137,-3,20.8,2.0,-30.1,21.1,3.4,-24.2,5.73,2.62,-19.4,26.6
2015-01-20 00:42:00,0.0,1.96594,0.00035,408.649,0.033,0.0622,0.0018,139.999,45.000,28648.63625,1.96715,408.955,33.753,45.067,45.000,0.00,0.09,-272.69,-272.74,-11,137,-2,20.8,2.1,-29.9,21.1,3.4,-24.2,5.73,2.57,-19.4,26.7
2015-01-20 00:43:00,0.0,1.96573,0.00048,408.657,0.029,0.0627,0.0019,140.004,45.000,28654.40615,1.96694,408.965,33.754,45.067,45.000,0.00,0.09,-272.69,-272.75,-11,138,-2,20.8,2.1,-29.9,21.2,3.5,-24.2,5.73,2.48,-19.4,26.7
2015-01-20 00:44:00,0.0,1.96532,0.00032,408.634,0.037,0.0627,0.0021,139.998,45.000,28661.54929,1.96655,408.942,33.772,45.067,45.000,0.00,0.09,-272.68,-272.74,-10,138,-2,20.8,2.1,-30.0,21.1,3.5,-24.2,5.73,2.48,-19.4,26.6
2015-01-20 00:45:00,0.0,1.96571,0.00029,408.636,0.023,0.0626,0.0018,139.998,45.000,28652.65433,1.96691,408.943,33.781,45.067,45.000,0.00,0.09,-272.68,-272.75,-10,137,-2,20.8,2.1,-30.0,21.1,3.5,-24.2,5.73,2.51,-19.4,26.6
2015-01-20 00:46:00,0.0,1.96572,0.00029,408.676,0.037,0.0615,0.0016,139.999,45.000,28652.03051,1.96691,408.978,33.770,45.067,45.000,0.00,0.09,-272.68,-272.76,-10,137,-3,20.8,2.1,-29.9,21.1,3.4,-24.2,5.73,2.58,-19.4,26.6
2015-01-20 00:47:00,0.0,1.96549,0.00040,408.670,0.028,0.0621,0.0018,139.998,45.000,28660.21159,1.96671,408.975,33.779,45.067,45.000,0.00,0.09,-272.69,-272.74,-11,138,-3,20.8,2.1,-29.9,21.1,3.5,-24.2,5.73,2.61,-19.4,26.7
2015-01-20 00:48:00,0.0,1.96569,0.00039,408.645,0.041,0.0627,0.0018,139.996,45.000,28652.04206,1.96689,408.955,33.757,45.067,45.000,0.00,0.09,-272.69,-272.74,-11,137,-3,20.8,2.1,-30.0,21.1,3.4,-24.2,5.73,2.64,-19.4,26.6
2015-01-20 00:49:00,0.0,1.96601,0.00037,408.663,0.031,0.0616,0.0015,140.001,45.000,28650.06082,1.96720,408.965,33.750,45.067,45.000,0.00,0.09,-272.69,-272.74,-10,137,-2,20.8,2.1,-30.0,21.1,3.5,-24.2,5.73,2.56,-19.4,26.6
2015-01-20 00:50:00,0.0,1.96599,0.00047,408.696,0.031,0.0611,0.0018,139.998,45.000,28652.42948,1.96714,408.995,33.749,45.067,45.000,0.00,0.09,-272.69,-272.74,-10,138,-2,20.8,2.1,-30.0,21.1,3.5,-24.2,5.73,2.48,-19.4,26.6
2015-01-20 00:51:00,0.0,1.96610,0.00046,408.720,0.031,0.0617,0.0021,140.001,45.000,28647.99932,1.96733,409.024,33.734,45.068,45.000,0.00,0.09,-272.68,-272.75,-10,137,-3,20.8,2.1,-30.0,21.1,3.5,-24.1,5.73,2.47,-19.4,26.6
2015-01-20 00:52:00,0.0,1.96599,0.00035,408.698,0.040,0.0604,0.0016,140.002,45.000,28646.64606,1.96714,408.995,33.689,45.067,45.000,0.00,0.09,-272.68,-272.75,-11,136,-2,20.7,2.0,-30.2,21.1,3.5,-24.1,5.73,2.55,-19.4,26.5
2015-01-20 00:53:00,0.0,1.96614,0.00036,408.710,0.039,0.0604,0.0020,139.999,45.000,28660.90525,1.96729,409.008,33.685,45.067,45.000,0.00,0.09,-272.69,-272.75,-10,139,-2,20.7,2.0,-30.3,21.1,3.5,-24.1,5.73,2.62,-19.4,26.6
2015-01-20 00:54:00,0.0,1.96623,0.00037,408.732,0.029,0.0602,0.0018,140.000,45.000,28675.91483,1.96739,409.028,33.688,45.067,45.000,0.00,0.09,-272.68,-272.74,-10,140,-2,20.8,2.0,-30.3,21.1,3.5,-24.1,5.73,2.62,-19.4,26.6
2015-01-20 00:55:00,0.0,1.96625,0.00029,408.741,0.027,0.0594,0.0018,140.001,45.000,28676.98436,1.96740,409.033,33.695,45.068,45.001,0.00,0.09,-272.69,-272.74,-10,141,-3,20.8,2.0,-30.4,21.1,3.5,-24.1,5.73,2.61,-19.4,26.6
2015-01-20 00:56:00,0.0,1.96642,0.00029,408.719,0.031,0.0595,0.0015,139.998,45.000,28667.05901,1.96758,409.012,33.726,45.068,45.001,0.00,0.09,-272.69,-272.74,-10,139,-3,20.8,2.0,-30.4,21.1,3.5,-24.1,5.73,2.56,-19.4,26.6
2015-01-20 00:57:00,0.0,1.96577,0.00037,408.690,0.027,0.0592,0.0019,140.002,45.000,28667.96807,1.96692,408.981,33.713,45.068,45.001,0.00,0.09,-272.69,-272.74,-11,138,-2,20.8,2.0,-30.4,21.1,3.5,-24.1,5.73,2.49,-19.4,26.6
2015-01-20 00:58:00,0.0,1.96550,0.00034,408.683,0.027,0.0590,0.0017,139.996,45.000,28668.05639,1.96666,408.974,33.727,45.068,45.001,0.00,0.09,-272.68,-272.74,-11,139,-2,20.8,2.0,-30.4,21.1,3.5,-24.1,5.73,2.48,-19.4,26.6
2015-01-20 00:59:00,0.0,1.96576,0.00038,408.680,0.034,0.0596,0.0018,140.000,45.000,28657.75358,1.96686,408.973,33.719,45.068,45.000,0.00,0.09,-272.68,-272.75,-10,137,-2,20.8,2.0,-30.4,21.1,3.5,-24.1,5.73,2.48,-19.4,26.6
2015-01-20 01:00:00,3.0,1.88643,0.03085,399.582,3.641,0.0128,0.0184,140.113,45.000,31126.03244,1.88968,399.835,33.724,45.067,45.000,0.00,0.09,-272.71,-272.74,-9,511,-2,20.8,2.0,-30.2,21.1,3.5,-24.1,5.73,2.61,-19.4,26.6
2015-01-20 01:01:00,3.0,1.87589,0.00025,397.389,0.055,0.0025,0.0015,140.004,45.000,31303.52048,1.87594,397.403,33.741,45.067,45.000,0.00,0.09,-272.68,-272.74,-9,511,-3,20.8,2.0,-30.2,21.1,3.5,-24.1,5.73,2.67,-19.4,26.6
2015-01-20 01:02:00,3.0,1.87604,0.00033,397.425,0.061,0.0039,0.0015,140.003,45.000,31342.53776,1.87610,397.440,33.732,45.067,44.999,0.00,0.09,-272.68,-272.75,-8,511,-2,20.8,2.0,-30.1,21.1,3.5,-24.1,5.73,2.56,-19.4,26.6
2015-01-20 01:03:00,3.0,1.87578,0.00033,397.563,0.032,0.0030,0.0021,140.002,45.000,31376.15904,1.87584,397.575,33.693,45.067,44.999,0.00,0.09,-272.68,-272.76,-8,511,-3,20.8,2.1,-30.0,21.1,3.5,-24.1,5.73,2.40,-19.4,26.6
2015-01-20 01:04:00,3.0,1.87600,0.00035,397.639,0.030,0.0017,0.0021,140.004,45.000,31402.77562,1.87602,397.648,33.688,45.067,45.000,0.00,0.09,-272.69,-272.74,-8,511,-2,20.8,2.0,-30.1,21.1,3.4,-24.2,5.73,2.36,-19.4,26.7
2015-01-20 01:05:00,3.0,1.87598,0.00037,397.607,0.028,0.0022,0.0018,140.001,45.000,31429.61069,1.87602,397.617,33.687,45.067,45.000,0.00,0.09,-272.70,-272.73,-9,511,-3,20.9,2.0,-30.1,21.1,3.4,-24.2,5.73,2.57,-19.4,26.7
2015-01-20 01:06:00,3.0,1.87604,0.00025,397.613,0.030,0.0010,0.0016,140.001,45.000,31449.45159,1.87607,397.616,33.663,45.067,45.000,0.00,0.09,-272.70,-272.74,-9,512,-2,20.9,2.1,-30.0,21.1,3.4,-24.2,5.73,2.63,-19.4,26.7
2015-01-20 01:07:00,3.0,1.87607,0.00037,397.632,0.028,0.0013,0.0018,139.999,45.000,31465.83589,1.87607,397.638,33.637,45.068,45.000,0.00,0.09,-272.68,-272.75,-9,512,-2,20.9,2.1,-29.9,21.2,3.4,-24.2,5.73,2.53,-19.4,26.7
2015-01-20 01:08:00,3.0,1.87610,0.00032,397.638,0.028,0.0001,0.0023,139.999,45.000,31481.42062,1.87613,397.640,33.625,45.068,45.000,0.00,0.09,-272.67,-272.75,-9,512,-2,20.9,2.1,-29.9,21.2,3.4,-24.2,5.73,2.41,-19.4,26.7
2015-01-20 01:09:00,3.0,1.87608,0.00035,397.646,0.030,-0.0002,0.0018,140.002,45.000,31495.50510,1.87608,397.646,33.620,45.068,45.000,0.00,0.09,-272.69,-272.75,-9,512,-3,20.9,2.1,-29.9,21.2,3.4,-24.2,5.73,2.34,-19.4,26.7
2015-01-20 01:10:00,3.0,1.87578,0.00027,397.642,0.029,-0.0002,0.0018,140.000,45.000,31508.39215,1.87577,397.641,33.574,45.068,45.000,0.00,0.09,-272.69,-272.74,-9,512,-3,21.0,2.1,-29.8,21.2,3.4,-24.2,5.73,2.40,-19.4,26.7
2015-01-20 01:11:00,3.0,1.87605,0.00037,397.639,0.030,-0.0003,0.0015,139.999,45.000,31517.95203,1.87604,397.637,33.585,45.068,45.000,0.00,0.09,-272.69,-272.73,-8,513,-3,21.0,2.1,-29.8,21.3,3.4,-24.2,5.73,2.61,-19.4,26.8
2015-01-20 01:12:00,3.0,1.87599,0.00035,397.639,0.035,-0.0006,0.0013,140.001,45.000,31527.94032,1.87597,397.636,33.564,45.068,45.000,0.00,0.09,-272.68,-272.75,-8,513,-3,21.0,2.1,-29.8,21.3,3.4,-24.2,5.73,2.60,-19.4,26.8
2015-01-20 01:13:00,3.0,1.87587,0.00037,397.631,0.026,-0.0000,0.0016,140.000,45.000,31536.43681,1.87587,397.632,33.564,45.068,45.000,0.00,0.09,-272.68,-272.76,-9,513,-2,21.1,2.1,-29.8,21.3,3.4,-24.3,5.73,2.36,-19.4,26.9
2015-01-20 01:14:00,3.0,1.87609,0.00039,397.624,0.034,0.0002,0.0013,140.001,45.000,31543.19850,1.87609,397.624,33.589,45.067,45.000,0.00,0.09,-272.68,-272.75,-10,513,-3,21.1,2.1,-29.8,21.3,3.4,-24.3,5.73,2.20,-19.4,26.9
2015-01-20 01:15:00,3.0,1.87597,0.00034,397.633,0.036,-0.0004,0.0013,140.000,45.000,31551.13353,1.87600,397.631,33.624,45.068,45.000,0.00,0.09,-272.70,-272.73,-9,513,-3,21.2,2.1,-29.7,21.4,3.4,-24.2,5.73,2.49,-19.4,26.9
2015-01-20 01:16:00,3.0,1.87591,0.00030,397.646,0.040,-0.0001,0.0022,140.001,45.000,31558.16341,1.87590,397.647,33.628,45.068,45.000,0.00,0.09,-272.70,-272.75,-8,514,-3,21.2,2.1,-29.7,21.4,3.4,-24.2,5.73,2.57,-19.4,27.0
2015-01-20 01:17:00,3.0,1.87592,0.00028,397.632,0.029,-0.0009,0.0014,139.998,45.000,31562.03186,1.87590,397.627,33.645,45.068,45.000,0.00,0.09,-272.68,-272.75,-8,514,-3,21.3,2.1,-29.7,21.5,3.4,-24.1,5.73,2.45,-19.4,27.0
2015-01-20 01:18:00,3.0,1.87611,0.00033,397.653,0.029,-0.0001,0.0013,139.997,45.000,31566.28766,1.87611,397.652,33.666,45.067,45.000,0.00,0.09,-272.67,-272.75,-9,514,-3,21.3,2.0,-29.8,21.5,3.4,-24.2,5.73,2.25,-19.4,27.0
2015-01-20 01:19:00,3.0,1.87609,0.00032,397.629,0.030,-0.0005,0.0015,139.999,45.000,31573.17267,1.87605,397.627,33.686,45.067,45.000,0.00,0.09,-272.70,-272.74,-9,514,-3,21.4,2.0,-29.9,21.5,3.4,-24.2,5.73,2.44,-19.4,27.1
2015-01-20 01:20:00,3.0,1.87612,0.00039,397.630,0.030,-0.0006,0.0017,140.003,45.000,31578.66011,1.87612,397.627,33.688,45.068,45.000,0.00,0.09,-272.70,-272.74,-10,514,-3,21.4,2.0,-29.9,21.5,3.4,-24.2,5.73,2.69,-19.4,27.1
2015-01-20 01:21:00,3.0,1.87575,0.00027,397.653,0.026,0.0003,0.0016,140.001,45.000,31582.65999,1.87578,397.654,33.688,45.068,45.000,0.00,0.09,-272.68,-272.75,-9,515,-3,21.4,2.0,-30.0,21.6,3.4,-24.2,5.73,2.61,-19.4,27.1
2015-01-20 01:22:00,3.0,1.87615,0.00023,397.639,0.033,-0.0002,0.0019,139.998,45.000,31583.53841,1.87612,397.639,33.697,45.068,45.000,0.00,0.09,-272.67,-272.75,-9,515,-3,21.4,2.0,-30.0,21.6,3.4,-24.2,5.73,2.36,-19.4,27.1
2015-01-20 01:23:00,3.0,1.87588,0.00028,397.644,0.023,-0.0002,0.0025,140.003,45.000,31588.78401,1.87590,397.642,33.734,45.068,45.000,0.00,0.09,-272.69,-272.74,-8,515,-3,21.5,2.0,-30.1,21.6,3.4,-24.1,5.73,2.39,-19.4,27.2
2015-01-20 01:24:00,3.0,1.87599,0.00026,397.652,0.026,0.0003,0.0021,140.000,45.000,31589.22856,1.87599,397.653,33.738,45.067,45.000,0.00,0.09,-272.70,-272.73,-9,515,-3,21.5,2.0,-30.0,21.7,3.4,-24.1,5.73,2.60,-19.4,27.2
2015-01-20 01:25:00,2.0,1.85061,0.01120,390.929,2.781,0.0003,0.0021,140.014,45.000,31991.19094,1.85160,391.065,33.700,45.067,45.000,0.00,0.09,-272.68,-272.74,-10,580,-3,21.6,2.0,-30.1,21.7,3.3,-24.2,5.73,2.75,-19.3,27.2
2015-01-20 01:26:00,2.0,1.84607,0.00027,389.668,0.035,0.0014,0.0022,140.000,45.000,32039.14807,1.84609,389.672,33.689,45.067,45.000,0.00,0.09,-272.68,-272.75,-10,581,-3,21.6,1.9,-30.1,21.7,3.3,-24.2,5.73,2.54,-19.3,27.2
2015-01-20 01:27:00,2.0,1.84618,0.00031,389.696,0.024,0.0022,0.0017,140.002,45.000,32051.10266,1.84620,389.707,33.688,45.067,45.000,0.00,0.09,-272.68,-272.75,-10,581,-3,21.6,1.9,-30.2,21.7,3.3,-24.2,5.73,2.37,-19.3,27.3
2015-01-20 01:28:00,2.0,1.84575,0.00030,389.682,0.029,0.0015,0.0014,139.998,45.000,32060.20556,1.84581,389.690,33.687,45.067,45.000,0.00,0.09,-272.68,-272.74,-9,582,-3,21.6,1.9,-30.4,21.7,3.3,-24.2,5.73,2.44,-19.3,27.3
2015-01-20 01:29:00,2.0,1.84582,0.00032,389.683,0.032,0.0018,0.0021,139.999,45.000,32067.51029,1.84584,389.692,33.688,45.067,45.000,0.00,0.09,-272.70,-272.73,-9,582,-3,21.7,1.9,-30.4,21.8,3.3,-24.2,5.73,2.63,-19.3,27.3
2015-01-20 01:30:00,2.0,1.84591,0.00037,389.644,0.033,0.0010,0.0020,139.999,45.000,32073.88192,1.84592,389.648,33.678,45.067,45.000,0.00,0.09,-272.69,-272.75,-13,581,1,21.7,1.9,-30.4,21.8,3.3,-24.2,5.73,2.69,-19.3,27.3
2015-01-20 01:31:00,2.0,1.84585,0.00040,389.664,0.034,0.0002,0.0020,139.997,45.000,32077.80473,1.84586,389.665,33.651,45.067,45.000,0.00,0.09,-272.67,-272.75,-9,583,-4,21.7,1.9,-30.1,21.8,3.3,-24.2,5.73,2.52,-19.3,27.3
2015-01-20 01:32:00,2.0,1.84605,0.00033,389.682,0.026,0.0004,0.0016,139.999,45.000,32080.74957,1.84605,389.684,33.652,45.067,45.000,0.00,0.09,-272.68,-272.75,-10,582,-3,21.7,2.0,-29.9,21.9,3.3,-24.2,5.73,2.35,-19.3,27.4
2015-01-20 01:33:00,2.0,1.84598,0.00033,389.664,0.028,0.0005,0.0015,139.999,45.000,32084.17782,1.84600,389.667,33.630,45.067,45.000,0.00,0.09,-272.70,-272.74,-10,583,-3,21.8,2.0,-29.8,21.9,3.3,-24.1,5.73,2.48,-19.3,27.4
2015-01-20 01:34:00,2.0,1.84595,0.00031,389.679,0.027,0.0003,0.0020,140.001,45.000,32086.15263,1.84595,389.681,33.648,45.068,45.000,0.00,0.09,-272.70,-272.73,-10,583,-3,21.8,2.0,-29.8,21.9,3.3,-24.2,5.73,2.65,-19.3,27.4
2015-01-20 01:35:00,2.0,1.84597,0.00040,389.651,0.030,0.0000,0.0015,140.002,45.000,32091.76901,1.84594,389.651,33.662,45.068,45.000,0.00,0.09,-272.67,-272.75,-9,583,-3,21.9,2.0,-29.7,21.9,3.3,-24.1,5.73,2.62,-19.3,27.4
2015-01-20 01:36:00,2.0,1.84589,0.00035,389.650,0.029,0.0001,0.0018,140.002,45.000,32096.88957,1.84593,389.650,33.683,45.068,45.000,0.00,0.09,-272.67,-272.76,-9,583,-3,21.9,2.0,-29.7,22.0,3.3,-24.1,5.73,2.39,-19.3,27.4
2015-01-20 01:37:00,2.0,1.84568,0.00039,389.663,0.019,-0.0007,0.0013,139.998,45.000,32097.52410,1.84567,389.660,33.659,45.068,45.000,0.00,0.09,-272.68,-272.74,-9,583,-3,21.9,2.0,-29.7,22.0,3.3,-24.1,5.73,2.40,-19.3,27.4
2015-01-20 01:38:00,2.0,1.84592,0.00026,389.676,0.029,-0.0001,0.0017,139.999,45.000,32098.48674,1.84591,389.675,33.632,45.067,45.000,0.00,0.09,-272.69,-272.73,-10,583,-3,21.9,2.0,-29.7,22.0,3.3,-24.1,5.73,2.59,-19.3,27.4
2015-01-20 01:39:00,2.0,1.84583,0.00037,389.662,0.026,-0.0004,0.0015,139.997,45.000,32097.27036,1.84581,389.660,33.623,45.067,45.000,0.00,0.09,-272.69,-272.74,-10,583,-3,22.0,2.0,-29.7,22.0,3.3,-24.1,5.73,2.69,-19.3,27.5
2015-01-20 01:40:00,2.0,1.84602,0.00034,389.670,0.031,-0.0003,0.0021,139.999,45.000,32097.96408,1.84603,389.669,33.613,45.067,45.000,0.00,0.09,-272.68,-272.76,-10,583,-3,22.0,2.0,-29.6,22.0,3.3,-24.1,5.73,2.56,-19.3,27.5
2015-01-20 01:41:00,2.0,1.84605,0.00045,389.701,0.029,0.0001,0.0015,139.999,45.000,32096.50387,1.84607,389.702,33.579,45.067,45.000,0.00,0.09,-272.67,-272.74,-11,583,-3,22.0,1.9,-29.8,22.1,3.3,-24.0,5.73,2.40,-19.3,27.5
2015-01-20 01:42:00,2.0,1.84606,0.00027,389.684,0.026,-0.0009,0.0017,139.998,45.000,32098.00281,1.84603,389.680,33.564,45.067,45.000,0.00,0.09,-272.68,-272.73,-9,584,-3,22.0,1.9,-29.9,22.1,3.3,-24.0,5.73,2.40,-19.3,27.5
2015-01-20 01:43:00,2.0,1.84600,0.00043,389.705,0.024,-0.0000,0.0019,139.999,45.000,32099.09414,1.84602,389.705,33.563,45.067,45.000,0.00,0.09,-272.70,-272.74,-9,584,-3,22.0,1.9,-30.1,22.1,3.3,-24.0,5.73,2.66,-19.3,27.5
2015-01-20 01:44:00,2.0,1.84607,0.00034,389.693,0.033,-0.0009,0.0019,140.001,45.000,32099.52441,1.84603,389.689,33.560,45.068,45.000,0.00,0.09,-272.69,-272.74,-10,583,-3,22.1,1.8,-30.6,22.1,3.3,-24.0,5.73,2.69,-19.3,27.5
2015-01-20 01:45:00,2.0,1.84597,0.00039,389.673,0.021,-0.0006,0.0015,140.001,45.000,32101.04578,1.84597,389.670,33.562,45.068,45.000,0.00,0.09,-272.67,-272.76,-10,583,-3,22.1,1.9,-30.2,22.1,3.3,-24.0,5.73,2.46,-19.2,27.5